星链-31812 (STARLINK-31812 )

导读

STARLINK-31812是美国太空探索技术公司SpaceX星链星座的一员,于2024年5月18日发射。星链项目旨在搭建全球卫星互联网,该卫星入轨后承担低轨卫星通信任务,为偏远地区、移动场景提供互联网接入服务,进一步扩充了星链星座规模,增强星座覆盖与通信容量,助力星链全球服务网络的构建。

基本信息
目录编号:
59800
目录名称:
STARLINK-31812
国际标识:
2024-093U
轨道中心:
EARTH
卫星名称:
星链-31812
卫星全名:
星链-31812 (STARLINK-31812 )
卫星状态:
在轨 (已飞行839 天)
发射日期:
2024-05-18 UTC
国别 :
美国 (US)
星等 :
--
轨道信息
数据来源 国际轨道数据 AOE轨道数据
星历时间 2026-09-04T10:59:14+0800
5小时前
查看轨道信息
2026-09-01T03:00:00+0800
3天前
查看轨道信息
半长轴 6861.239km 6861.107km
偏心率 0.0002847 0.0001573
轨道倾角 43.006° 43.004°
近地点辐角 268.890° 314.837°
升交点赤经 281.279° 300.108°
平近点角 91.162° 55.735°
近地点 481.148km 481.89km
远地点 485.056km 484.05km
周期 94.268分钟 94.265分钟
每日圈数 15.275624 15.276065
详细信息
固有亮度:
5
最大亮度:
1.5
卫星平台:
Starlink v2.0 mini
覆盖范围:
全球
运营商:
太空探索技术公司
运营商所在国:
美国
制造商(研发单位):
太空探索技术公司
制造商所在国:
美国
使用方式:
暂无
卫星简介
星链(Starlink)计划是由太空探索技术公司(SpaceX)提出的一个巨型低轨卫星互联网星座项目,计划在2019年至2024年间在太空搭建由约1.2万颗卫星组成的“星链”网络,其中1584颗将部署在地球上空550千米处的近地轨道,并从2020年开始工作。该卫星仍在工作。
2D轨道图
3D轨道图
轨道高度分析图
轨道倾角分析图
轨道综合分析图
查看轨道综合分析图